Private Wetterstation Wechselburg
Wetterdaten: Samstag, 21.08.2021
Datum Zeit Temp. +2m Bodentemp. Temp.+5cm Temp. Wind Windchill X Diff Temp. Feuchte +2m Feuchte +5cm Luftdruck Regen Wind Richtung Richtung Sonnenschein Taupunkt Windchill Windben
21.08.2021 00:00 13,3 C 18,7 C 13,1 C 12,8 C 11,9 C 0,0 C 84 % 88 % 1018,1 hPa 0,0 l/m 0,0 km/h (0 Bft) NW 315 0 min 10,7 C 11,9 C 0,0 km/h (0 Bft)
21.08.2021 00:05 13,2 C 18,7 C 13,1 C 12,8 C 11,9 C 0,0 C 84 % 88 % 1018,1 hPa 0,0 l/m 0,0 km/h (0 Bft) NW 315 0 min 10,6 C 11,9 C 0,0 km/h (0 Bft)
21.08.2021 00:10 13,2 C 18,7 C 13,0 C 12,8 C 11,9 C 0,0 C 84 % 88 % 1018,1 hPa 0,0 l/m 0,0 km/h (0 Bft) NW 315 0 min 10,6 C 11,9 C 0,0 km/h (0 Bft)
21.08.2021 00:15 13,1 C 18,7 C 13,0 C 12,7 C 11,8 C 0,0 C 84 % 88 % 1018,1 hPa 0,0 l/m 0,0 km/h (0 Bft) NW 315 0 min 10,5 C 11,8 C 0,0 km/h (0 Bft)
21.08.2021 00:20 13,1 C 18,7 C 12,9 C 12,6 C 11,6 C 0,0 C 84 % 88 % 1018,2 hPa 0,0 l/m 0,0 km/h (0 Bft) NW 315 0 min 10,5 C 11,6 C 0,0 km/h (0 Bft)
21.08.2021 00:25 13,0 C 18,7 C 12,8 C 12,5 C 11,5 C 0,0 C 84 % 88 % 1018,2 hPa 0,0 l/m 0,0 km/h (0 Bft) NW 315 0 min 10,4 C 11,5 C 0,0 km/h (0 Bft)
21.08.2021 00:30 12,9 C 18,7 C 12,7 C 12,5 C 11,6 C 0,0 C 84 % 88 % 1018,2 hPa 0,0 l/m 0,0 km/h (0 Bft) NW 315 0 min 10,3 C 11,6 C 0,0 km/h (0 Bft)
21.08.2021 00:35 12,8 C 18,7 C 12,7 C 12,3 C 11,4 C 0,0 C 84 % 88 % 1018,2 hPa 0,0 l/m 0,0 km/h (0 Bft) NW 315 0 min 10,2 C 11,4 C 0,0 km/h (0 Bft)
21.08.2021 00:40 12,7 C 18,6 C 12,7 C 12,3 C 11,4 C 0,0 C 84 % 89 % 1018,2 hPa 0,0 l/m 0,0 km/h (0 Bft) NW 315 0 min 10,1 C 11,4 C 0,0 km/h (0 Bft)
21.08.2021 00:45 12,7 C 18,6 C 12,6 C 12,3 C 11,4 C 0,0 C 85 % 89 % 1018,2 hPa 0,0 l/m 0,0 km/h (0 Bft) NW 315 0 min 10,2 C 11,4 C 0,0 km/h (0 Bft)
21.08.2021 00:50 12,7 C 18,6 C 12,5 C 12,2 C 11,2 C 0,0 C 85 % 89 % 1018,2 hPa 0,0 l/m 0,0 km/h (0 Bft) NW 315 0 min 10,2 C 11,2 C 0,0 km/h (0 Bft)
21.08.2021 00:55 12,6 C 18,6 C 12,5 C 12,1 C 11,2 C 0,0 C 85 % 89 % 1018,2 hPa 0,0 l/m 0,0 km/h (0 Bft) NW 315 0 min 10,1 C 11,2 C 0,0 km/h (0 Bft)
21.08.2021 01:00 12,5 C 18,6 C 12,4 C 12,0 C 11,1 C 0,0 C 85 % 89 % 1018,3 hPa 0,0 l/m 0,0 km/h (0 Bft) NW 315 0 min 10,0 C 11,1 C 0,0 km/h (0 Bft)
21.08.2021 01:05 12,4 C 18,6 C 12,3 C 12,0 C 11,1 C 0,0 C 85 % 89 % 1018,3 hPa 0,0 l/m 0,0 km/h (0 Bft) NW 315 0 min 9,9 C 11,1 C 0,0 km/h (0 Bft)
21.08.2021 01:10 12,3 C 18,6 C 12,3 C 11,9 C 11,0 C 0,0 C 85 % 89 % 1018,3 hPa 0,0 l/m 0,0 km/h (0 Bft) NW 315 0 min 9,9 C 11,0 C 0,0 km/h (0 Bft)
21.08.2021 01:15 12,3 C 18,6 C 12,3 C 11,9 C 11,0 C 0,0 C 85 % 89 % 1018,3 hPa 0,0 l/m 0,0 km/h (0 Bft) NW 315 0 min 9,9 C 11,0 C 0,0 km/h (0 Bft)
21.08.2021 01:20 12,3 C 18,5 C 12,3 C 11,9 C 11,0 C 0,0 C 85 % 89 % 1018,1 hPa 0,0 l/m 0,0 km/h (0 Bft) NW 315 0 min 9,9 C 11,0 C 0,0 km/h (0 Bft)
21.08.2021 01:25 12,3 C 18,5 C 12,2 C 11,8 C 10,9 C 0,0 C 85 % 89 % 1018,1 hPa 0,0 l/m 0,0 km/h (0 Bft) NW 315 0 min 9,9 C 10,9 C 0,0 km/h (0 Bft)
21.08.2021 01:30 12,2 C 18,6 C 12,1 C 11,7 C 10,8 C 0,0 C 86 % 89 % 1018,1 hPa 0,0 l/m 0,0 km/h (0 Bft) NW 315 0 min 9,9 C 10,8 C 0,0 km/h (0 Bft)
21.08.2021 01:35 12,1 C 18,6 C 12,1 C 11,6 C 10,7 C 0,0 C 86 % 89 % 1018,1 hPa 0,0 l/m 0,0 km/h (0 Bft) NW 315 0 min 9,8 C 10,7 C 0,0 km/h (0 Bft)
21.08.2021 01:40 12,0 C 18,6 C 12,0 C 11,6 C 10,7 C 0,0 C 86 % 89 % 1018,4 hPa 0,0 l/m 0,0 km/h (0 Bft) NW 315 0 min 9,7 C 10,7 C 0,0 km/h (0 Bft)
21.08.2021 01:45 12,0 C 18,6 C 11,9 C 11,6 C 10,9 C 0,0 C 86 % 90 % 1018,4 hPa 0,0 l/m 0,0 km/h (0 Bft) NW 315 0 min 9,7 C 10,9 C 0,0 km/h (0 Bft)
21.08.2021 01:50 12,0 C 18,6 C 11,9 C 11,6 C 10,9 C 0,0 C 86 % 90 % 1018,4 hPa 0,0 l/m 0,0 km/h (0 Bft) NW 315 0 min 9,7 C 10,9 C 0,0 km/h (0 Bft)
21.08.2021 01:55 12,0 C 18,5 C 11,9 C 11,6 C 10,9 C 0,0 C 86 % 90 % 1018,4 hPa 0,0 l/m 0,0 km/h (0 Bft) NW 315 0 min 9,7 C 10,9 C 0,0 km/h (0 Bft)
21.08.2021 02:00 11,9 C 18,5 C 11,9 C 11,6 C 10,9 C 0,0 C 86 % 90 % 1018,6 hPa 0,0 l/m 0,0 km/h (0 Bft) NW 315 0 min 9,6 C 10,9 C 0,0 km/h (0 Bft)
21.08.2021 02:05 11,9 C 18,5 C 11,9 C 11,5 C 10,8 C 0,0 C 86 % 90 % 1018,6 hPa 0,0 l/m 0,0 km/h (0 Bft) NW 315 0 min 9,6 C 10,8 C 0,0 km/h (0 Bft)
21.08.2021 02:10 11,9 C 18,5 C 11,9 C 11,5 C 10,7 C 0,0 C 86 % 90 % 1018,6 hPa 0,0 l/m 0,0 km/h (0 Bft) NW 315 0 min 9,6 C 10,7 C 0,0 km/h (0 Bft)
21.08.2021 02:15 11,8 C 18,5 C 11,8 C 11,4 C 10,5 C 0,0 C 86 % 90 % 1018,6 hPa 0,0 l/m 0,0 km/h (0 Bft) NW 315 0 min 9,5 C 10,5 C 0,0 km/h (0 Bft)
21.08.2021 02:20 11,6 C 18,5 C 11,6 C 11,2 C 10,4 C 0,0 C 86 % 89 % 1018,5 hPa 0,0 l/m 0,0 km/h (0 Bft) NW 315 0 min 9,3 C 10,4 C 0,0 km/h (0 Bft)
21.08.2021 02:25 11,6 C 18,5 C 11,6 C 11,2 C 10,4 C 0,0 C 86 % 89 % 1018,5 hPa 0,0 l/m 0,0 km/h (0 Bft) NW 315 0 min 9,3 C 10,4 C 0,0 km/h (0 Bft)
21.08.2021 02:30 11,6 C 18,4 C 11,6 C 11,2 C 10,3 C 0,0 C 87 % 89 % 1018,5 hPa 0,0 l/m 0,0 km/h (0 Bft) NW 315 0 min 9,5 C 10,3 C 0,0 km/h (0 Bft)
21.08.2021 02:35 11,6 C 18,4 C 11,5 C 11,2 C 10,3 C 0,0 C 87 % 89 % 1018,5 hPa 0,0 l/m 0,0 km/h (0 Bft) NW 315 0 min 9,5 C 10,3 C 0,0 km/h (0 Bft)
21.08.2021 02:40 11,5 C 18,4 C 11,5 C 11,1 C 10,2 C 0,0 C 87 % 89 % 1018,6 hPa 0,0 l/m 0,0 km/h (0 Bft) NW 315 0 min 9,4 C 10,2 C 0,0 km/h (0 Bft)
21.08.2021 02:45 11,5 C 18,4 C 11,5 C 11,1 C 10,2 C 0,0 C 87 % 90 % 1018,6 hPa 0,0 l/m 0,0 km/h (0 Bft) NW 315 0 min 9,4 C 10,2 C 0,0 km/h (0 Bft)
21.08.2021 02:50 11,5 C 18,4 C 11,5 C 11,1 C 10,3 C 0,0 C 87 % 90 % 1018,6 hPa 0,0 l/m 0,0 km/h (0 Bft) NW 315 0 min 9,4 C 10,3 C 0,0 km/h (0 Bft)
21.08.2021 02:55 11,3 C 18,4 C 11,3 C 10,9 C 10,2 C 0,0 C 86 % 90 % 1018,6 hPa 0,0 l/m 0,0 km/h (0 Bft) NW 315 0 min 9,0 C 10,2 C 0,0 km/h (0 Bft)
21.08.2021 03:00 11,3 C 18,4 C 11,3 C 10,9 C 10,2 C 0,0 C 86 % 90 % 1018,6 hPa 0,0 l/m 0,0 km/h (0 Bft) NW 315 0 min 9,0 C 10,2 C 0,0 km/h (0 Bft)
21.08.2021 03:05 11,2 C 18,3 C 11,3 C 10,8 C 10,1 C 0,0 C 87 % 90 % 1018,6 hPa 0,0 l/m 0,0 km/h (0 Bft) NW 315 0 min 9,1 C 10,1 C 0,0 km/h (0 Bft)
21.08.2021 03:10 11,1 C 18,3 C 11,2 C 10,7 C 9,9 C 0,0 C 87 % 90 % 1018,6 hPa 0,0 l/m 0,0 km/h (0 Bft) NW 315 0 min 9,0 C 9,9 C 0,0 km/h (0 Bft)
21.08.2021 03:15 11,1 C 18,3 C 11,2 C 10,7 C 9,9 C 0,0 C 87 % 90 % 1018,6 hPa 0,0 l/m 0,0 km/h (0 Bft) NW 315 0 min 9,0 C 9,9 C 0,0 km/h (0 Bft)
21.08.2021 03:20 11,1 C 18,3 C 11,1 C 10,6 C 9,7 C 0,0 C 87 % 90 % 1018,5 hPa 0,0 l/m 0,0 km/h (0 Bft) NW 315 0 min 9,0 C 9,7 C 0,0 km/h (0 Bft)
21.08.2021 03:25 11,0 C 18,3 C 11,0 C 10,6 C 9,7 C 0,0 C 87 % 90 % 1018,5 hPa 0,0 l/m 0,0 km/h (0 Bft) NW 315 0 min 8,9 C 9,7 C 0,0 km/h (0 Bft)
21.08.2021 03:30 10,9 C 18,3 C 10,9 C 10,5 C 9,7 C 0,0 C 87 % 90 % 1018,5 hPa 0,0 l/m 0,0 km/h (0 Bft) NW 315 0 min 8,8 C 9,7 C 0,0 km/h (0 Bft)
21.08.2021 03:35 10,9 C 18,3 C 11,0 C 10,5 C 9,8 C 0,0 C 87 % 90 % 1018,5 hPa 0,0 l/m 0,0 km/h (0 Bft) NW 315 0 min 8,8 C 9,8 C 0,0 km/h (0 Bft)
21.08.2021 03:40 10,8 C 18,2 C 11,0 C 10,5 C 9,9 C 0,0 C 87 % 90 % 1018,7 hPa 0,0 l/m 0,0 km/h (0 Bft) NW 315 0 min 8,7 C 9,9 C 0,0 km/h (0 Bft)
21.08.2021 03:45 10,9 C 18,2 C 11,0 C 10,6 C 9,9 C 0,0 C 87 % 90 % 1018,7 hPa 0,0 l/m 0,0 km/h (0 Bft) NW 315 0 min 8,8 C 9,9 C 0,0 km/h (0 Bft)
21.08.2021 03:50 10,8 C 18,2 C 11,0 C 10,5 C 10,0 C 0,0 C 87 % 91 % 1018,7 hPa 0,0 l/m 0,0 km/h (0 Bft) NW 315 0 min 8,7 C 10,0 C 0,0 km/h (0 Bft)
21.08.2021 03:55 10,8 C 18,2 C 11,0 C 10,5 C 10,0 C 0,0 C 87 % 91 % 1018,7 hPa 0,0 l/m 0,0 km/h (0 Bft) NW 315 0 min 8,7 C 10,0 C 0,0 km/h (0 Bft)
21.08.2021 04:00 10,8 C 18,2 C 10,9 C 10,5 C 9,9 C 0,0 C 87 % 90 % 1018,7 hPa 0,0 l/m 0,0 km/h (0 Bft) NW 315 0 min 8,7 C 9,9 C 0,0 km/h (0 Bft)
21.08.2021 04:05 10,7 C 18,2 C 10,9 C 10,4 C 9,7 C 0,0 C 87 % 90 % 1018,7 hPa 0,0 l/m 0,0 km/h (0 Bft) NW 315 0 min 8,6 C 9,7 C 0,0 km/h (0 Bft)
21.08.2021 04:10 10,7 C 18,1 C 10,7 C 10,3 C 9,6 C 0,0 C 87 % 90 % 1018,7 hPa 0,0 l/m 0,0 km/h (0 Bft) NW 315 0 min 8,6 C 9,6 C 0,0 km/h (0 Bft)
21.08.2021 04:15 10,5 C 18,1 C 10,7 C 10,1 C 9,4 C 0,0 C 87 % 90 % 1018,5 hPa 0,0 l/m 0,0 km/h (0 Bft) NW 315 0 min 8,4 C 9,4 C 0,0 km/h (0 Bft)
21.08.2021 04:20 10,5 C 18,1 C 10,6 C 10,1 C 9,4 C 0,0 C 87 % 90 % 1018,5 hPa 0,0 l/m 0,0 km/h (0 Bft) NW 315 0 min 8,4 C 9,4 C 0,0 km/h (0 Bft)
21.08.2021 04:25 10,4 C 18,1 C 10,5 C 10,1 C 9,4 C 0,0 C 87 % 90 % 1018,5 hPa 0,0 l/m 0,0 km/h (0 Bft) NW 315 0 min 8,3 C 9,4 C 0,0 km/h (0 Bft)
21.08.2021 04:30 10,4 C 18,1 C 10,5 C 10,1 C 9,4 C 0,0 C 87 % 90 % 1018,5 hPa 0,0 l/m 0,0 km/h (0 Bft) NW 315 0 min 8,3 C 9,4 C 0,0 km/h (0 Bft)
21.08.2021 04:35 10,3 C 18,0 C 10,5 C 10,0 C 9,4 C 0,0 C 87 % 91 % 1018,7 hPa 0,0 l/m 0,0 km/h (0 Bft) NW 315 0 min 8,2 C 9,4 C 0,0 km/h (0 Bft)
21.08.2021 04:40 10,3 C 18,0 C 10,5 C 10,0 C 9,4 C 0,0 C 87 % 91 % 1018,7 hPa 0,0 l/m 0,0 km/h (0 Bft) NW 315 0 min 8,2 C 9,4 C 0,0 km/h (0 Bft)
21.08.2021 04:45 10,2 C 18,0 C 10,4 C 9,9 C 9,4 C 0,0 C 87 % 91 % 1018,7 hPa 0,0 l/m 0,0 km/h (0 Bft) NW 315 0 min 8,1 C 9,4 C 0,0 km/h (0 Bft)
21.08.2021 04:50 10,2 C 18,0 C 10,5 C 9,9 C 9,4 C 0,0 C 87 % 91 % 1018,7 hPa 0,0 l/m 0,0 km/h (0 Bft) NW 315 0 min 8,1 C 9,4 C 0,0 km/h (0 Bft)
21.08.2021 04:55 10,3 C 18,0 C 10,4 C 10,0 C 9,4 C 0,0 C 88 % 91 % 1018,5 hPa 0,0 l/m 0,0 km/h (0 Bft) NW 315 0 min 8,4 C 9,4 C 0,0 km/h (0 Bft)
21.08.2021 05:00 10,1 C 18,0 C 10,4 C 9,8 C 9,2 C 0,0 C 88 % 91 % 1018,5 hPa 0,0 l/m 0,0 km/h (0 Bft) NW 315 0 min 8,2 C 9,2 C 0,0 km/h (0 Bft)
21.08.2021 05:05 10,1 C 18,0 C 10,4 C 9,8 C 9,2 C 0,0 C 88 % 91 % 1018,5 hPa 0,0 l/m 0,0 km/h (0 Bft) NW 315 0 min 8,2 C 9,2 C 0,0 km/h (0 Bft)
21.08.2021 05:10 10,0 C 17,9 C 10,3 C 9,7 C 9,1 C 0,0 C 88 % 91 % 1018,5 hPa 0,0 l/m 0,0 km/h (0 Bft) NW 315 0 min 8,1 C 9,1 C 0,0 km/h (0 Bft)
21.08.2021 05:15 10,0 C 17,9 C 10,2 C 9,7 C 9,0 C 0,0 C 88 % 91 % 1018,6 hPa 0,0 l/m 0,0 km/h (0 Bft) NW 315 0 min 8,1 C 9,0 C 0,0 km/h (0 Bft)
21.08.2021 05:20 10,0 C 17,9 C 10,2 C 9,7 C 9,0 C 0,0 C 88 % 91 % 1018,6 hPa 0,0 l/m 0,0 km/h (0 Bft) NW 315 0 min 8,1 C 9,0 C 0,0 km/h (0 Bft)
21.08.2021 05:25 9,9 C 17,9 C 10,2 C 9,6 C 8,9 C 0,0 C 88 % 91 % 1018,6 hPa 0,0 l/m 0,0 km/h (0 Bft) NW 315 0 min 8,0 C 8,9 C 0,0 km/h (0 Bft)
21.08.2021 05:30 9,8 C 17,9 C 10,1 C 9,5 C 8,8 C 0,0 C 88 % 91 % 1018,6 hPa 0,0 l/m 0,0 km/h (0 Bft) NW 315 0 min 7,9 C 8,8 C 0,0 km/h (0 Bft)
21.08.2021 05:35 9,9 C 17,9 C 10,1 C 9,5 C 8,8 C 0,0 C 88 % 91 % 1018,6 hPa 0,0 l/m 0,0 km/h (0 Bft) NW 315 0 min 8,0 C 8,8 C 0,0 km/h (0 Bft)
21.08.2021 05:40 9,7 C 17,8 C 10,1 C 9,4 C 8,8 C 0,0 C 88 % 91 % 1018,7 hPa 0,0 l/m 0,0 km/h (0 Bft) NW 315 0 min 7,8 C 8,8 C 0,0 km/h (0 Bft)
21.08.2021 05:45 9,7 C 17,8 C 10,1 C 9,4 C 8,8 C 0,0 C 88 % 91 % 1018,7 hPa 0,0 l/m 0,0 km/h (0 Bft) NW 315 0 min 7,8 C 8,8 C 0,0 km/h (0 Bft)
21.08.2021 05:50 9,7 C 17,8 C 10,1 C 9,4 C 8,8 C 0,0 C 88 % 91 % 1018,7 hPa 0,0 l/m 0,0 km/h (0 Bft) NW 315 0 min 7,8 C 8,8 C 0,0 km/h (0 Bft)
21.08.2021 05:55 9,7 C 17,8 C 9,9 C 9,4 C 8,8 C 0,0 C 88 % 91 % 1019,0 hPa 0,0 l/m 0,0 km/h (0 Bft) NW 315 0 min 7,8 C 8,8 C 0,0 km/h (0 Bft)
21.08.2021 06:00 9,6 C 17,8 C 9,9 C 9,3 C 8,8 C 0,0 C 88 % 91 % 1019,0 hPa 0,0 l/m 0,0 km/h (0 Bft) NW 315 0 min 7,7 C 8,8 C 0,0 km/h (0 Bft)
21.08.2021 06:05 9,6 C 17,8 C 9,9 C 9,3 C 8,8 C 0,0 C 88 % 91 % 1019,0 hPa 0,0 l/m 0,0 km/h (0 Bft) NW 315 0 min 7,7 C 8,8 C 0,0 km/h (0 Bft)
21.08.2021 06:10 9,5 C 17,8 C 9,9 C 9,3 C 8,8 C 0,0 C 88 % 91 % 1019,0 hPa 0,0 l/m 0,0 km/h (0 Bft) NW 315 0 min 7,6 C 8,8 C 0,0 km/h (0 Bft)
21.08.2021 06:15 9,5 C 17,8 C 9,9 C 9,3 C 8,8 C 0,0 C 88 % 91 % 1019,0 hPa 0,0 l/m 0,0 km/h (0 Bft) NW 315 0 min 7,6 C 8,8 C 0,0 km/h (0 Bft)
21.08.2021 06:20 9,4 C 17,7 C 9,9 C 9,2 C 8,8 C 0,0 C 88 % 91 % 1019,1 hPa 0,0 l/m 0,0 km/h (0 Bft) NW 315 0 min 7,5 C 8,8 C 0,0 km/h (0 Bft)
21.08.2021 06:25 9,5 C 17,7 C 9,9 C 9,3 C 8,9 C 0,0 C 88 % 91 % 1019,1 hPa 0,0 l/m 0,0 km/h (0 Bft) NW 315 0 min 7,6 C 8,9 C 0,0 km/h (0 Bft)
21.08.2021 06:30 9,5 C 17,7 C 9,9 C 9,3 C 8,9 C 0,0 C 88 % 91 % 1019,1 hPa 0,0 l/m 0,0 km/h (0 Bft) NW 315 0 min 7,6 C 8,9 C 0,0 km/h (0 Bft)
21.08.2021 06:35 9,5 C 17,7 C 10,0 C 9,3 C 9,0 C 0,0 C 88 % 91 % 1019,1 hPa 0,0 l/m 0,0 km/h (0 Bft) NW 315 0 min 7,6 C 9,0 C 0,0 km/h (0 Bft)
21.08.2021 06:40 9,5 C 17,7 C 9,9 C 9,3 C 9,0 C 0,0 C 88 % 91 % 1019,1 hPa 0,0 l/m 0,0 km/h (0 Bft) NW 315 0 min 7,6 C 9,0 C 0,0 km/h (0 Bft)
21.08.2021 06:45 9,5 C 17,7 C 10,0 C 9,3 C 9,0 C 0,0 C 88 % 91 % 1019,1 hPa 0,0 l/m 0,0 km/h (0 Bft) NW 315 0 min 7,6 C 9,0 C 0,0 km/h (0 Bft)
21.08.2021 06:50 9,4 C 17,7 C 10,0 C 9,3 C 9,2 C 0,0 C 88 % 91 % 1019,1 hPa 0,0 l/m 0,0 km/h (0 Bft) NW 315 0 min 7,5 C 9,2 C 0,0 km/h (0 Bft)
21.08.2021 06:55 9,5 C 17,6 C 10,1 C 9,4 C 9,3 C 0,0 C 88 % 91 % 1019,1 hPa 0,0 l/m 0,0 km/h (0 Bft) NW 315 0 min 7,6 C 9,3 C 0,0 km/h (0 Bft)
21.08.2021 07:00 9,5 C 17,6 C 10,3 C 9,5 C 9,5 C 0,0 C 88 % 91 % 1019,1 hPa 0,0 l/m 0,0 km/h (0 Bft) NW 315 0 min 7,6 C 9,5 C 0,0 km/h (0 Bft)
21.08.2021 07:05 9,5 C 17,6 C 10,4 C 9,6 C 9,6 C 0,1 C 88 % 91 % 1019,1 hPa 0,0 l/m 0,0 km/h (0 Bft) NW 315 0 min 7,6 C 9,6 C 0,0 km/h (0 Bft)
21.08.2021 07:10 9,4 C 17,6 C 10,7 C 11,1 C 11,1 C 1,7 C 88 % 91 % 1019,1 hPa 0,0 l/m 0,0 km/h (0 Bft) NW 315 5 min 7,5 C 11,1 C 0,0 km/h (0 Bft)
21.08.2021 07:15 9,5 C 17,6 C 11,1 C 12,7 C 12,7 C 3,2 C 88 % 91 % 1019,4 hPa 0,0 l/m 0,0 km/h (0 Bft) NW 315 5 min 7,6 C 12,7 C 0,0 km/h (0 Bft)
21.08.2021 07:20 9,6 C 17,6 C 11,4 C 13,5 C 13,5 C 3,9 C 88 % 91 % 1019,4 hPa 0,0 l/m 0,0 km/h (0 Bft) NW 315 5 min 7,7 C 13,5 C 0,0 km/h (0 Bft)
21.08.2021 07:25 9,7 C 17,6 C 11,9 C 14,4 C 14,4 C 4,7 C 88 % 91 % 1019,4 hPa 0,0 l/m 0,0 km/h (0 Bft) NW 315 5 min 7,8 C 14,4 C 0,0 km/h (0 Bft)
21.08.2021 07:30 9,7 C 17,6 C 11,9 C 14,4 C 14,4 C 4,7 C 88 % 91 % 1019,4 hPa 0,0 l/m 0,0 km/h (0 Bft) NW 315 5 min 7,8 C 14,4 C 0,0 km/h (0 Bft)
21.08.2021 07:35 10,0 C 17,6 C 12,6 C 16,2 C 16,2 C 6,2 C 88 % 90 % 1019,4 hPa 0,0 l/m 0,0 km/h (0 Bft) NW 315 5 min 8,1 C 16,2 C 0,0 km/h (0 Bft)
21.08.2021 07:40 10,0 C 17,6 C 12,6 C 16,2 C 16,2 C 6,2 C 88 % 90 % 1019,4 hPa 0,0 l/m 0,0 km/h (0 Bft) NW 315 5 min 8,1 C 16,2 C 0,0 km/h (0 Bft)
21.08.2021 07:45 10,1 C 17,5 C 12,6 C 17,2 C 17,2 C 7,1 C 88 % 90 % 1019,4 hPa 0,0 l/m 0,0 km/h (0 Bft) NW 315 5 min 8,2 C 17,2 C 0,0 km/h (0 Bft)
21.08.2021 07:50 10,5 C 17,5 C 12,6 C 19,0 C 19,0 C 8,5 C 88 % 89 % 1019,4 hPa 0,0 l/m 0,0 km/h (0 Bft) NW 315 5 min 8,6 C 19,0 C 0,0 km/h (0 Bft)
21.08.2021 07:55 10,8 C 17,5 C 12,8 C 20,0 C 20,0 C 9,2 C 88 % 89 % 1019,6 hPa 0,0 l/m 0,0 km/h (0 Bft) NW 315 5 min 8,9 C 20,0 C 0,0 km/h (0 Bft)
21.08.2021 08:00 11,1 C 17,5 C 12,8 C 20,5 C 20,5 C 9,4 C 88 % 89 % 1019,6 hPa 0,0 l/m 0,0 km/h (0 Bft) NW 315 5 min 9,2 C 20,5 C 0,0 km/h (0 Bft)
21.08.2021 08:05 11,2 C 17,5 C 12,9 C 20,6 C 20,6 C 9,4 C 88 % 89 % 1019,6 hPa 0,0 l/m 0,0 km/h (0 Bft) NW 315 5 min 9,3 C 20,6 C 0,0 km/h (0 Bft)
21.08.2021 08:10 11,2 C 17,5 C 12,9 C 20,6 C 20,6 C 9,4 C 88 % 89 % 1019,6 hPa 0,0 l/m 0,0 km/h (0 Bft) NW 315 5 min 9,3 C 20,6 C 0,0 km/h (0 Bft)
21.08.2021 08:15 11,6 C 17,5 C 13,1 C 21,2 C 21,2 C 9,6 C 88 % 89 % 1019,8 hPa 0,0 l/m 0,0 km/h (0 Bft) NW 315 5 min 9,7 C 21,2 C 0,0 km/h (0 Bft)
21.08.2021 08:20 11,8 C 17,5 C 13,2 C 21,8 C 21,8 C 10,0 C 87 % 89 % 1019,8 hPa 0,0 l/m 0,0 km/h (0 Bft) NW 315 5 min 9,7 C 21,8 C 0,0 km/h (0 Bft)
21.08.2021 08:25 11,8 C 17,5 C 13,2 C 21,8 C 21,8 C 10,0 C 87 % 89 % 1019,8 hPa 0,0 l/m 0,0 km/h (0 Bft) NW 315 5 min 9,7 C 21,8 C 0,0 km/h (0 Bft)
21.08.2021 08:30 12,3 C 17,5 C 13,4 C 23,1 C 23,1 C 10,8 C 87 % 89 % 1019,8 hPa 0,0 l/m 0,0 km/h (0 Bft) NW 315 5 min 10,2 C 23,1 C 0,0 km/h (0 Bft)
21.08.2021 08:35 13,2 C 17,4 C 13,6 C 24,5 C 24,5 C 11,3 C 88 % 89 % 1019,6 hPa 0,0 l/m 0,0 km/h (0 Bft) NW 315 5 min 11,3 C 24,5 C 0,0 km/h (0 Bft)
21.08.2021 08:40 13,6 C 17,4 C 13,8 C 24,8 C 24,8 C 11,2 C 87 % 89 % 1019,6 hPa 0,0 l/m 0,0 km/h (0 Bft) NW 315 5 min 11,5 C 24,8 C 0,0 km/h (0 Bft)
21.08.2021 08:45 14,3 C 17,3 C 14,1 C 25,9 C 25,9 C 11,6 C 87 % 89 % 1019,6 hPa 0,0 l/m 0,0 km/h (0 Bft) NW 315 5 min 12,2 C 25,9 C 0,0 km/h (0 Bft)
21.08.2021 08:50 14,6 C 17,3 C 14,2 C 25,1 C 25,1 C 10,5 C 87 % 90 % 1019,6 hPa 0,0 l/m 0,0 km/h (0 Bft) NW 315 5 min 12,5 C 25,1 C 0,0 km/h (0 Bft)
21.08.2021 08:55 15,5 C 17,3 C 14,3 C 23,2 C 23,2 C 7,7 C 88 % 89 % 1019,5 hPa 0,0 l/m 0,0 km/h (0 Bft) NW 315 5 min 13,5 C 23,2 C 0,0 km/h (0 Bft)
21.08.2021 09:00 15,5 C 17,3 C 14,3 C 23,2 C 23,2 C 7,7 C 88 % 89 % 1019,5 hPa 0,0 l/m 0,0 km/h (0 Bft) NW 315 5 min 13,5 C 23,2 C 0,0 km/h (0 Bft)
21.08.2021 09:05 16,2 C 17,3 C 14,7 C 21,5 C 21,5 C 5,3 C 87 % 90 % 1019,5 hPa 0,0 l/m 0,0 km/h (0 Bft) NW 315 5 min 14,0 C 21,5 C 0,0 km/h (0 Bft)
21.08.2021 09:10 16,4 C 17,3 C 14,8 C 20,9 C 20,9 C 4,5 C 87 % 89 % 1019,5 hPa 0,0 l/m 0,0 km/h (0 Bft) NW 315 5 min 14,2 C 20,9 C 0,0 km/h (0 Bft)
21.08.2021 09:15 16,8 C 17,3 C 15,1 C 20,6 C 20,6 C 3,8 C 86 % 89 % 1019,5 hPa 0,0 l/m 0,0 km/h (0 Bft) NW 315 5 min 14,4 C 20,6 C 0,0 km/h (0 Bft)
21.08.2021 09:20 16,8 C 17,3 C 15,1 C 20,6 C 20,6 C 3,8 C 86 % 89 % 1019,5 hPa 0,0 l/m 0,0 km/h (0 Bft) NW 315 5 min 14,4 C 20,6 C 0,0 km/h (0 Bft)
21.08.2021 09:25 17,1 C 17,2 C 15,2 C 20,3 C 20,3 C 3,2 C 86 % 89 % 1019,5 hPa 0,0 l/m 0,0 km/h (0 Bft) NW 315 0 min 14,7 C 20,3 C 0,0 km/h (0 Bft)
21.08.2021 09:30 17,2 C 17,2 C 15,4 C 20,3 C 20,3 C 3,1 C 85 % 89 % 1019,5 hPa 0,0 l/m 0,0 km/h (0 Bft) NW 315 0 min 14,7 C 20,3 C 0,0 km/h (0 Bft)
21.08.2021 09:35 17,4 C 17,2 C 15,5 C 20,3 C 20,3 C 2,9 C 84 % 89 % 1019,5 hPa 0,0 l/m 0,0 km/h (0 Bft) NW 315 0 min 14,7 C 20,3 C 0,0 km/h (0 Bft)
21.08.2021 09:40 17,6 C 17,2 C 15,7 C 20,8 C 20,8 C 3,2 C 84 % 89 % 1019,7 hPa 0,0 l/m 0,0 km/h (0 Bft) NW 315 0 min 14,9 C 20,8 C 0,0 km/h (0 Bft)
21.08.2021 09:45 18,0 C 17,2 C 16,1 C 21,6 C 21,6 C 3,6 C 83 % 88 % 1019,7 hPa 0,0 l/m 0,0 km/h (0 Bft) NW 315 5 min 15,1 C 21,6 C 0,0 km/h (0 Bft)
21.08.2021 09:50 18,2 C 17,1 C 16,2 C 21,5 C 21,5 C 3,3 C 82 % 88 % 1019,7 hPa 0,0 l/m 0,0 km/h (0 Bft) NW 315 5 min 15,1 C 21,5 C 0,0 km/h (0 Bft)
21.08.2021 09:55 18,2 C 17,2 C 16,4 C 21,4 C 21,4 C 3,2 C 82 % 88 % 1019,8 hPa 0,0 l/m 0,0 km/h (0 Bft) NW 315 0 min 15,1 C 21,4 C 0,0 km/h (0 Bft)
21.08.2021 10:00 18,4 C 17,2 C 16,6 C 21,4 C 21,4 C 3,0 C 81 % 88 % 1019,8 hPa 0,0 l/m 0,0 km/h (0 Bft) NW 315 0 min 15,1 C 21,4 C 0,0 km/h (0 Bft)
21.08.2021 10:05 18,5 C 17,2 C 16,9 C 21,3 C 21,3 C 2,8 C 80 % 87 % 1019,8 hPa 0,0 l/m 0,0 km/h (0 Bft) NW 315 0 min 15,0 C 21,3 C 0,0 km/h (0 Bft)
21.08.2021 10:10 18,5 C 17,2 C 16,9 C 21,3 C 21,3 C 2,8 C 80 % 87 % 1019,8 hPa 0,0 l/m 0,0 km/h (0 Bft) NW 315 0 min 15,0 C 21,3 C 0,0 km/h (0 Bft)
21.08.2021 10:15 18,8 C 17,2 C 17,4 C 21,4 C 21,4 C 2,6 C 80 % 86 % 1019,9 hPa 0,0 l/m 0,0 km/h (0 Bft) NW 315 0 min 15,3 C 21,4 C 0,0 km/h (0 Bft)
21.08.2021 10:20 19,0 C 17,2 C 17,5 C 21,8 C 21,8 C 2,8 C 80 % 86 % 1019,9 hPa 0,0 l/m 0,0 km/h (0 Bft) NW 315 0 min 15,5 C 21,8 C 0,0 km/h (0 Bft)
21.08.2021 10:25 19,2 C 17,1 C 17,8 C 22,1 C 22,1 C 2,9 C 79 % 86 % 1019,9 hPa 0,0 l/m 0,0 km/h (0 Bft) NW 315 0 min 15,5 C 22,1 C 0,0 km/h (0 Bft)
21.08.2021 10:30 19,5 C 17,1 C 17,9 C 22,2 C 22,2 C 2,7 C 78 % 85 % 1019,9 hPa 0,0 l/m 0,0 km/h (0 Bft) NW 315 0 min 15,6 C 22,2 C 0,0 km/h (0 Bft)
21.08.2021 10:35 19,6 C 17,0 C 18,2 C 22,6 C 22,6 C 3,0 C 76 % 84 % 1019,5 hPa 0,0 l/m 0,0 km/h (0 Bft) NW 315 0 min 15,2 C 22,6 C 0,0 km/h (0 Bft)
21.08.2021 10:40 19,8 C 17,1 C 18,3 C 22,8 C 22,8 C 3,0 C 76 % 84 % 1019,5 hPa 0,0 l/m 0,0 km/h (0 Bft) NW 315 0 min 15,4 C 22,8 C 2,3 km/h (1 Bft)
21.08.2021 10:45 20,1 C 17,1 C 18,4 C 23,1 C 23,1 C 3,0 C 75 % 83 % 1019,5 hPa 0,0 l/m 0,2 km/h (0 Bft) S-SW 202 0 min 15,5 C 23,1 C 0,0 km/h (0 Bft)
21.08.2021 10:50 20,3 C 17,1 C 18,6 C 23,2 C 23,2 C 2,9 C 74 % 82 % 1019,5 hPa 0,0 l/m 0,2 km/h (0 Bft) S-SW 202 0 min 15,5 C 23,2 C 2,6 km/h (1 Bft)
21.08.2021 10:55 20,5 C 17,1 C 18,8 C 23,7 C 23,7 C 3,2 C 73 % 81 % 1019,6 hPa 0,0 l/m 0,0 km/h (0 Bft) S-SW 202 0 min 15,5 C 23,7 C 0,0 km/h (0 Bft)
21.08.2021 11:00 20,8 C 17,1 C 19,1 C 23,9 C 23,9 C 3,1 C 72 % 80 % 1019,6 hPa 0,0 l/m 0,2 km/h (0 Bft) O 90 0 min 15,6 C 23,9 C 3,2 km/h (1 Bft)
21.08.2021 11:05 20,8 C 17,1 C 19,1 C 23,9 C 23,9 C 3,1 C 72 % 80 % 1019,6 hPa 0,0 l/m 0,2 km/h (0 Bft) O 90 0 min 15,6 C 23,9 C 3,2 km/h (1 Bft)
21.08.2021 11:10 21,2 C 17,1 C 20,1 C 23,8 C 23,8 C 2,6 C 70 % 77 % 1019,6 hPa 0,0 l/m 3,1 km/h (1 Bft) O-SO 112 0 min 15,5 C 23,8 C 5,5 km/h (1 Bft)
21.08.2021 11:15 21,5 C 17,2 C 20,5 C 24,1 C 24,1 C 2,6 C 69 % 74 % 1019,0 hPa 0,0 l/m 2,1 km/h (1 Bft) NO 45 0 min 15,6 C 24,1 C 4,2 km/h (1 Bft)
21.08.2021 11:20 21,6 C 17,2 C 21,1 C 24,3 C 24,3 C 2,7 C 69 % 75 % 1019,0 hPa 0,0 l/m 1,3 km/h (1 Bft) S-SO 157 0 min 15,7 C 24,3 C 6,6 km/h (2 Bft)
21.08.2021 11:25 21,9 C 17,2 C 21,3 C 24,9 C 24,9 C 3,0 C 69 % 73 % 1019,0 hPa 0,0 l/m 0,5 km/h (0 Bft) W-SW 247 0 min 15,9 C 24,9 C 0,0 km/h (0 Bft)
21.08.2021 11:30 22,1 C 17,2 C 21,4 C 25,3 C 25,3 C 3,2 C 69 % 72 % 1019,0 hPa 0,0 l/m 0,0 km/h (0 Bft) SW 225 0 min 16,1 C 25,3 C 0,0 km/h (0 Bft)
21.08.2021 11:35 22,5 C 17,2 C 21,6 C 25,9 C 25,9 C 3,4 C 67 % 71 % 1019,6 hPa 0,0 l/m 0,0 km/h (0 Bft) NO 45 5 min 16,1 C 25,9 C 0,0 km/h (0 Bft)
21.08.2021 11:40 22,7 C 17,2 C 21,7 C 26,2 C 26,2 C 3,5 C 65 % 71 % 1019,6 hPa 0,0 l/m 0,0 km/h (0 Bft) S 180 5 min 15,8 C 26,2 C 0,0 km/h (0 Bft)
21.08.2021 11:45 22,8 C 17,2 C 21,8 C 26,3 C 26,3 C 3,5 C 64 % 67 % 1019,6 hPa 0,0 l/m 0,2 km/h (0 Bft) N-NO 22 5 min 15,6 C 26,3 C 0,0 km/h (0 Bft)
21.08.2021 11:50 22,8 C 17,1 C 21,9 C 26,2 C 26,2 C 3,4 C 63 % 68 % 1019,6 hPa 0,0 l/m 0,3 km/h (0 Bft) SW 225 5 min 15,4 C 26,2 C 1,8 km/h (1 Bft)
21.08.2021 11:55 22,9 C 17,2 C 21,9 C 26,2 C 26,2 C 3,3 C 62 % 68 % 1019,6 hPa 0,0 l/m 0,3 km/h (0 Bft) SW 225 5 min 15,2 C 26,2 C 0,0 km/h (0 Bft)
21.08.2021 12:00 22,9 C 17,2 C 22,1 C 26,3 C 26,3 C 3,4 C 62 % 69 % 1019,6 hPa 0,0 l/m 0,5 km/h (0 Bft) SW 225 5 min 15,2 C 26,3 C 0,0 km/h (0 Bft)
21.08.2021 12:05 23,1 C 17,2 C 22,3 C 26,5 C 26,5 C 3,4 C 60 % 66 % 1019,6 hPa 0,0 l/m 1,0 km/h (0 Bft) SW 225 5 min 14,9 C 26,5 C 3,9 km/h (1 Bft)
21.08.2021 12:10 23,1 C 17,2 C 22,3 C 26,3 C 26,3 C 3,2 C 60 % 65 % 1019,6 hPa 0,0 l/m 1,4 km/h (1 Bft) SW 225 0 min 14,9 C 26,3 C 1,9 km/h (1 Bft)
21.08.2021 12:15 23,1 C 17,2 C 22,2 C 26,3 C 26,3 C 3,2 C 58 % 63 % 1019,5 hPa 0,0 l/m 0,8 km/h (0 Bft) SW 225 0 min 14,4 C 26,3 C 0,0 km/h (0 Bft)
21.08.2021 12:20 23,2 C 17,2 C 22,2 C 26,3 C 26,3 C 3,1 C 59 % 65 % 1019,5 hPa 0,0 l/m 0,5 km/h (0 Bft) SW 225 0 min 14,7 C 26,3 C 3,4 km/h (1 Bft)
21.08.2021 12:25 23,5 C 17,2 C 22,3 C 26,6 C 26,6 C 3,1 C 58 % 65 % 1019,5 hPa 0,0 l/m 0,3 km/h (0 Bft) SW 225 0 min 14,7 C 26,6 C 0,0 km/h (0 Bft)
21.08.2021 12:30 23,7 C 17,2 C 22,2 C 26,7 C 26,7 C 3,0 C 58 % 64 % 1019,5 hPa 0,0 l/m 0,3 km/h (0 Bft) W 270 0 min 14,9 C 26,7 C 0,0 km/h (0 Bft)
21.08.2021 12:35 24,4 C 17,3 C 22,4 C 28,3 C 28,3 C 3,9 C 59 % 63 % 1019,4 hPa 0,0 l/m 0,3 km/h (0 Bft) SO 135 5 min 15,9 C 28,3 C 0,0 km/h (0 Bft)
21.08.2021 12:40 24,7 C 17,3 C 22,5 C 29,4 C 29,4 C 4,7 C 57 % 64 % 1019,4 hPa 0,0 l/m 0,3 km/h (0 Bft) SW 225 5 min 15,6 C 29,4 C 0,0 km/h (0 Bft)
21.08.2021 12:45 25,1 C 17,3 C 22,6 C 30,3 C 30,3 C 5,2 C 56 % 63 % 1019,4 hPa 0,0 l/m 0,3 km/h (0 Bft) NW 315 5 min 15,7 C 30,3 C 0,0 km/h (0 Bft)
21.08.2021 12:50 25,3 C 17,3 C 22,7 C 31,2 C 31,2 C 5,9 C 57 % 64 % 1019,4 hPa 0,0 l/m 0,3 km/h (0 Bft) S-SW 202 5 min 16,2 C 31,2 C 0,0 km/h (0 Bft)
21.08.2021 12:55 25,7 C 17,3 C 22,8 C 32,3 C 32,3 C 6,6 C 55 % 63 % 1019,4 hPa 0,0 l/m 0,5 km/h (0 Bft) S-SW 202 5 min 16,0 C 32,3 C 2,1 km/h (1 Bft)
21.08.2021 13:00 25,7 C 17,3 C 22,7 C 30,9 C 30,9 C 5,2 C 54 % 63 % 1019,4 hPa 0,0 l/m 0,5 km/h (0 Bft) W-SW 247 5 min 15,7 C 30,9 C 2,3 km/h (1 Bft)
21.08.2021 13:05 25,3 C 17,3 C 22,3 C 29,1 C 29,1 C 3,8 C 54 % 63 % 1019,4 hPa 0,0 l/m 0,3 km/h (0 Bft) S 180 5 min 15,3 C 29,1 C 0,0 km/h (0 Bft)
21.08.2021 13:10 25,1 C 17,4 C 22,1 C 28,0 C 28,0 C 2,9 C 54 % 63 % 1019,4 hPa 0,0 l/m 0,2 km/h (0 Bft) S 180 0 min 15,1 C 28,0 C 0,0 km/h (0 Bft)
21.08.2021 13:15 24,7 C 17,4 C 22,2 C 27,5 C 27,5 C 2,8 C 54 % 62 % 1019,3 hPa 0,0 l/m 1,0 km/h (0 Bft) O-NO 67 0 min 14,8 C 27,5 C 3,1 km/h (1 Bft)
21.08.2021 13:20 24,4 C 17,4 C 22,5 C 28,1 C 28,1 C 3,7 C 55 % 61 % 1019,3 hPa 0,0 l/m 1,3 km/h (1 Bft) W 270 5 min 14,8 C 28,1 C 1,8 km/h (1 Bft)
21.08.2021 13:25 24,8 C 17,4 C 22,7 C 29,6 C 29,6 C 4,8 C 55 % 63 % 1019,3 hPa 0,0 l/m 1,8 km/h (1 Bft) SW 225 5 min 15,1 C 29,6 C 2,6 km/h (1 Bft)
21.08.2021 13:30 24,8 C 17,4 C 22,6 C 29,1 C 29,1 C 4,3 C 55 % 63 % 1019,3 hPa 0,0 l/m 1,4 km/h (1 Bft) SW 225 5 min 15,1 C 29,1 C 0,0 km/h (0 Bft)
21.08.2021 13:35 24,8 C 17,4 C 22,7 C 28,9 C 28,9 C 4,1 C 55 % 62 % 1019,3 hPa 0,0 l/m 0,6 km/h (0 Bft) SW 225 5 min 15,1 C 28,9 C 1,8 km/h (1 Bft)
21.08.2021 13:40 25,0 C 17,4 C 23,0 C 30,4 C 30,4 C 5,4 C 54 % 62 % 1019,3 hPa 0,0 l/m 0,5 km/h (0 Bft) SW 225 5 min 15,0 C 30,4 C 1,9 km/h (1 Bft)
21.08.2021 13:45 25,3 C 17,5 C 22,9 C 30,6 C 30,6 C 5,3 C 54 % 62 % 1019,3 hPa 0,0 l/m 0,8 km/h (0 Bft) W-SW 247 5 min 15,3 C 30,6 C 0,0 km/h (0 Bft)
21.08.2021 13:50 25,3 C 17,5 C 22,8 C 29,5 C 29,5 C 4,2 C 53 % 62 % 1019,3 hPa 0,0 l/m 0,5 km/h (0 Bft) SW 225 5 min 15,0 C 29,5 C 0,0 km/h (0 Bft)
21.08.2021 13:55 25,5 C 17,5 C 22,9 C 29,7 C 29,7 C 4,2 C 54 % 62 % 1019,1 hPa 0,0 l/m 0,3 km/h (0 Bft) W-SW 247 5 min 15,5 C 29,7 C 0,0 km/h (0 Bft)
21.08.2021 14:00 25,6 C 17,5 C 23,0 C 29,7 C 29,7 C 4,1 C 53 % 63 % 1019,1 hPa 0,0 l/m 0,2 km/h (0 Bft) S-SW 202 5 min 15,3 C 29,7 C 0,0 km/h (0 Bft)
21.08.2021 14:05 25,6 C 17,5 C 23,2 C 29,6 C 29,6 C 4,0 C 52 % 59 % 1019,1 hPa 0,0 l/m 0,2 km/h (0 Bft) N-NW 337 5 min 15,0 C 29,6 C 0,0 km/h (0 Bft)
21.08.2021 14:10 25,6 C 17,5 C 23,2 C 29,6 C 29,6 C 4,0 C 52 % 59 % 1019,1 hPa 0,0 l/m 0,2 km/h (0 Bft) N-NW 337 5 min 15,0 C 29,6 C 0,0 km/h (0 Bft)
21.08.2021 14:15 25,9 C 17,6 C 24,1 C 32,0 C 32,0 C 6,1 C 51 % 58 % 1019,1 hPa 0,0 l/m 0,5 km/h (0 Bft) SW 225 5 min 15,0 C 32,0 C 1,6 km/h (1 Bft)
21.08.2021 14:20 25,8 C 17,6 C 23,9 C 31,4 C 31,4 C 5,6 C 50 % 57 % 1019,1 hPa 0,0 l/m 1,0 km/h (0 Bft) SW 225 5 min 14,6 C 31,4 C 2,3 km/h (1 Bft)
21.08.2021 14:25 25,5 C 17,6 C 23,9 C 30,8 C 30,8 C 5,3 C 50 % 58 % 1019,1 hPa 0,0 l/m 1,3 km/h (1 Bft) SW 225 5 min 14,3 C 30,8 C 1,6 km/h (1 Bft)
21.08.2021 14:30 25,6 C 17,6 C 23,9 C 31,3 C 31,3 C 5,7 C 50 % 58 % 1019,1 hPa 0,0 l/m 1,1 km/h (1 Bft) SW 225 5 min 14,4 C 31,3 C 0,0 km/h (0 Bft)
21.08.2021 14:35 25,6 C 17,6 C 23,9 C 31,2 C 31,2 C 5,6 C 50 % 57 % 1019,2 hPa 0,0 l/m 0,6 km/h (0 Bft) SO 135 5 min 14,4 C 31,2 C 2,3 km/h (1 Bft)
21.08.2021 14:40 25,8 C 17,7 C 23,9 C 31,1 C 31,1 C 5,3 C 50 % 58 % 1019,2 hPa 0,0 l/m 0,3 km/h (0 Bft) SO 135 5 min 14,6 C 31,1 C 0,0 km/h (0 Bft)
21.08.2021 14:45 25,7 C 17,7 C 23,8 C 30,3 C 30,3 C 4,6 C 50 % 57 % 1019,2 hPa 0,0 l/m 0,5 km/h (0 Bft) S-SW 202 5 min 14,5 C 30,3 C 0,0 km/h (0 Bft)
21.08.2021 14:50 25,7 C 17,7 C 24,0 C 31,3 C 31,3 C 5,6 C 50 % 57 % 1019,2 hPa 0,0 l/m 0,6 km/h (0 Bft) O-SO 112 5 min 14,5 C 31,3 C 3,1 km/h (1 Bft)
21.08.2021 14:55 25,9 C 17,7 C 24,1 C 32,4 C 32,4 C 6,5 C 50 % 57 % 1018,6 hPa 0,0 l/m 0,5 km/h (0 Bft) N-NW 337 5 min 14,7 C 32,4 C 0,0 km/h (0 Bft)
21.08.2021 15:00 25,9 C 17,7 C 24,1 C 32,1 C 32,1 C 6,2 C 50 % 57 % 1018,6 hPa 0,0 l/m 0,3 km/h (0 Bft) W-SW 247 5 min 14,7 C 32,1 C 0,0 km/h (0 Bft)
21.08.2021 15:05 26,0 C 17,7 C 24,3 C 32,6 C 32,6 C 6,6 C 51 % 58 % 1018,6 hPa 0,0 l/m 0,0 km/h (0 Bft) W-SW 247 5 min 15,1 C 32,6 C 0,0 km/h (0 Bft)
21.08.2021 15:10 26,0 C 17,7 C 24,5 C 32,9 C 32,9 C 6,9 C 50 % 56 % 1018,6 hPa 0,0 l/m 0,5 km/h (0 Bft) W 270 5 min 14,8 C 32,9 C 3,7 km/h (1 Bft)
21.08.2021 15:15 26,0 C 17,7 C 24,4 C 32,9 C 32,9 C 6,9 C 49 % 55 % 1018,4 hPa 0,0 l/m 1,4 km/h (1 Bft) W 270 5 min 14,4 C 32,9 C 1,8 km/h (1 Bft)
21.08.2021 15:20 25,8 C 17,7 C 24,4 C 32,7 C 32,7 C 6,9 C 50 % 56 % 1018,4 hPa 0,0 l/m 1,3 km/h (1 Bft) S 180 5 min 14,6 C 32,7 C 1,6 km/h (1 Bft)
21.08.2021 15:25 25,8 C 17,8 C 24,7 C 32,9 C 32,9 C 7,1 C 50 % 54 % 1018,4 hPa 0,0 l/m 0,6 km/h (0 Bft) W-NW 292 5 min 14,6 C 32,9 C 0,0 km/h (0 Bft)
21.08.2021 15:30 26,0 C 17,8 C 24,7 C 33,4 C 33,4 C 7,4 C 49 % 53 % 1018,4 hPa 0,0 l/m 1,1 km/h (1 Bft) W 270 5 min 14,4 C 33,4 C 3,9 km/h (1 Bft)
21.08.2021 15:35 26,0 C 17,8 C 24,8 C 33,6 C 33,6 C 7,6 C 49 % 54 % 1018,5 hPa 0,0 l/m 1,8 km/h (1 Bft) W-SW 247 5 min 14,4 C 33,6 C 0,0 km/h (0 Bft)
21.08.2021 15:40 26,1 C 17,8 C 24,9 C 33,8 C 33,8 C 7,7 C 49 % 52 % 1018,5 hPa 0,0 l/m 1,8 km/h (1 Bft) NO 45 5 min 14,5 C 33,8 C 1,8 km/h (1 Bft)
21.08.2021 15:45 26,0 C 17,8 C 24,8 C 33,9 C 33,9 C 7,9 C 50 % 53 % 1018,5 hPa 0,0 l/m 1,3 km/h (1 Bft) SW 225 5 min 14,8 C 33,9 C 1,9 km/h (1 Bft)
21.08.2021 15:50 26,1 C 17,9 C 24,8 C 33,4 C 33,4 C 7,3 C 49 % 54 % 1018,5 hPa 0,0 l/m 1,1 km/h (1 Bft) SW 225 5 min 14,5 C 33,4 C 0,0 km/h (0 Bft)
21.08.2021 15:55 25,9 C 17,9 C 24,7 C 32,2 C 32,2 C 6,3 C 49 % 52 % 1018,2 hPa 0,0 l/m 0,8 km/h (0 Bft) W-SW 247 5 min 14,4 C 32,2 C 2,7 km/h (1 Bft)
21.08.2021 16:00 25,9 C 17,9 C 24,6 C 31,9 C 31,9 C 6,0 C 49 % 52 % 1018,2 hPa 0,0 l/m 0,6 km/h (0 Bft) NW 315 5 min 14,4 C 31,9 C 4,5 km/h (1 Bft)
21.08.2021 16:05 25,9 C 17,9 C 24,5 C 31,1 C 31,1 C 5,2 C 49 % 52 % 1018,2 hPa 0,0 l/m 1,0 km/h (0 Bft) NW 315 5 min 14,4 C 31,1 C 3,7 km/h (1 Bft)
21.08.2021 16:10 25,9 C 17,9 C 24,6 C 30,4 C 30,4 C 4,5 C 49 % 53 % 1018,2 hPa 0,0 l/m 1,1 km/h (1 Bft) W-SW 247 5 min 14,4 C 30,4 C 0,0 km/h (0 Bft)
21.08.2021 16:15 25,9 C 18,0 C 24,8 C 31,2 C 31,2 C 5,3 C 49 % 53 % 1018,2 hPa 0,0 l/m 1,4 km/h (1 Bft) SW 225 5 min 14,4 C 31,2 C 2,1 km/h (1 Bft)
21.08.2021 16:20 26,0 C 18,0 C 24,8 C 31,4 C 31,4 C 5,4 C 49 % 53 % 1018,2 hPa 0,0 l/m 1,3 km/h (1 Bft) NW 315 5 min 14,4 C 31,4 C 1,8 km/h (1 Bft)
21.08.2021 16:25 26,0 C 18,0 C 24,7 C 31,2 C 31,2 C 5,2 C 48 % 52 % 1018,2 hPa 0,0 l/m 1,6 km/h (1 Bft) S 180 5 min 14,1 C 31,2 C 1,6 km/h (1 Bft)
21.08.2021 16:30 25,9 C 18,0 C 24,6 C 31,3 C 31,3 C 5,4 C 48 % 54 % 1018,2 hPa 0,0 l/m 1,1 km/h (1 Bft) SW 225 5 min 14,0 C 31,3 C 2,6 km/h (1 Bft)
21.08.2021 16:35 25,8 C 18,0 C 24,4 C 30,4 C 30,4 C 4,6 C 49 % 54 % 1017,9 hPa 0,0 l/m 0,8 km/h (0 Bft) W-SW 247 5 min 14,3 C 30,4 C 0,0 km/h (0 Bft)
21.08.2021 16:40 25,8 C 18,0 C 24,2 C 29,3 C 29,3 C 3,5 C 49 % 55 % 1017,9 hPa 0,0 l/m 1,1 km/h (1 Bft) SW 225 5 min 14,3 C 29,3 C 0,0 km/h (0 Bft)
21.08.2021 16:45 25,6 C 18,1 C 23,9 C 28,2 C 28,2 C 2,6 C 49 % 55 % 1017,9 hPa 0,0 l/m 0,8 km/h (0 Bft) W 270 0 min 14,1 C 28,2 C 2,1 km/h (1 Bft)
21.08.2021 16:50 25,5 C 18,1 C 23,8 C 27,5 C 27,5 C 2,0 C 50 % 56 % 1017,9 hPa 0,0 l/m 0,3 km/h (0 Bft) SW 225 0 min 14,3 C 27,5 C 0,0 km/h (0 Bft)
21.08.2021 16:55 25,5 C 18,1 C 23,7 C 27,0 C 27,0 C 1,5 C 50 % 55 % 1017,9 hPa 0,0 l/m 0,2 km/h (0 Bft) W 270 0 min 14,3 C 27,0 C 0,0 km/h (0 Bft)
21.08.2021 17:00 25,4 C 18,1 C 23,9 C 26,9 C 26,9 C 1,5 C 50 % 55 % 1017,9 hPa 0,0 l/m 0,2 km/h (0 Bft) N-NW 337 0 min 14,2 C 26,9 C 0,0 km/h (0 Bft)
21.08.2021 17:05 25,5 C 18,1 C 24,1 C 27,1 C 27,1 C 1,6 C 50 % 56 % 1017,9 hPa 0,0 l/m 0,3 km/h (0 Bft) SW 225 0 min 14,3 C 27,1 C 0,0 km/h (0 Bft)
21.08.2021 17:10 25,7 C 18,2 C 24,2 C 27,1 C 27,1 C 1,4 C 50 % 55 % 1017,9 hPa 0,0 l/m 0,3 km/h (0 Bft) W-SW 247 0 min 14,5 C 27,1 C 0,0 km/h (0 Bft)
21.08.2021 17:15 25,7 C 18,2 C 24,3 C 26,9 C 26,9 C 1,2 C 49 % 55 % 1017,9 hPa 0,0 l/m 0,2 km/h (0 Bft) W-SW 247 0 min 14,2 C 26,9 C 0,0 km/h (0 Bft)
21.08.2021 17:20 25,8 C 18,2 C 24,3 C 26,9 C 26,9 C 1,1 C 49 % 55 % 1017,9 hPa 0,0 l/m 0,2 km/h (0 Bft) NW 315 0 min 14,3 C 26,9 C 0,0 km/h (0 Bft)
21.08.2021 17:25 25,9 C 18,2 C 24,3 C 26,7 C 26,7 C 0,8 C 50 % 56 % 1017,9 hPa 0,0 l/m 0,3 km/h (0 Bft) W-SW 247 0 min 14,7 C 26,7 C 1,8 km/h (1 Bft)
21.08.2021 17:30 25,9 C 18,2 C 24,4 C 26,7 C 26,7 C 0,8 C 49 % 55 % 1017,9 hPa 0,0 l/m 0,5 km/h (0 Bft) W-SW 247 0 min 14,4 C 26,7 C 0,0 km/h (0 Bft)
21.08.2021 17:35 26,0 C 18,3 C 24,4 C 26,6 C 26,6 C 0,6 C 49 % 55 % 1018,2 hPa 0,0 l/m 0,8 km/h (0 Bft) SW 225 0 min 14,4 C 26,6 C 2,3 km/h (1 Bft)
21.08.2021 17:40 26,1 C 18,3 C 24,3 C 26,5 C 26,5 C 0,4 C 49 % 55 % 1018,2 hPa 0,0 l/m 0,6 km/h (0 Bft) NW 315 0 min 14,5 C 26,5 C 2,4 km/h (1 Bft)
21.08.2021 17:45 26,0 C 18,3 C 24,3 C 26,3 C 26,3 C 0,3 C 49 % 55 % 1018,2 hPa 0,0 l/m 0,3 km/h (0 Bft) W-NW 292 0 min 14,4 C 26,3 C 0,0 km/h (0 Bft)
21.08.2021 17:50 26,0 C 18,3 C 24,3 C 26,3 C 26,3 C 0,3 C 48 % 54 % 1018,2 hPa 0,0 l/m 0,5 km/h (0 Bft) W 270 0 min 14,1 C 26,3 C 2,1 km/h (1 Bft)
21.08.2021 17:55 25,9 C 18,4 C 24,3 C 26,2 C 26,2 C 0,3 C 49 % 56 % 1017,7 hPa 0,0 l/m 0,3 km/h (0 Bft) W-SW 247 0 min 14,4 C 26,2 C 0,0 km/h (0 Bft)
21.08.2021 18:00 25,8 C 18,4 C 24,5 C 26,1 C 26,1 C 0,3 C 49 % 56 % 1017,7 hPa 0,0 l/m 0,2 km/h (0 Bft) W-SW 247 0 min 14,3 C 26,1 C 0,0 km/h (0 Bft)
21.08.2021 18:05 25,9 C 18,4 C 24,3 C 26,1 C 26,1 C 0,2 C 49 % 55 % 1017,7 hPa 0,0 l/m 0,2 km/h (0 Bft) W-SW 247 0 min 14,4 C 26,1 C 0,0 km/h (0 Bft)
21.08.2021 18:10 25,8 C 18,4 C 24,2 C 25,9 C 25,9 C 0,1 C 49 % 55 % 1017,7 hPa 0,0 l/m 0,2 km/h (0 Bft) W 270 0 min 14,3 C 25,9 C 0,0 km/h (0 Bft)
21.08.2021 18:15 25,7 C 18,4 C 24,1 C 25,7 C 25,6 C 0,0 C 49 % 56 % 1017,7 hPa 0,0 l/m 0,2 km/h (0 Bft) W 270 0 min 14,2 C 25,6 C 0,0 km/h (0 Bft)
21.08.2021 18:20 25,7 C 18,4 C 23,9 C 25,7 C 25,6 C 0,0 C 49 % 56 % 1017,7 hPa 0,0 l/m 0,2 km/h (0 Bft) W 270 0 min 14,2 C 25,6 C 0,0 km/h (0 Bft)
21.08.2021 18:25 25,6 C 18,4 C 23,9 C 25,5 C 25,3 C 0,0 C 50 % 55 % 1017,7 hPa 0,0 l/m 0,0 km/h (0 Bft) W 270 0 min 14,4 C 25,3 C 0,0 km/h (0 Bft)
21.08.2021 18:30 25,6 C 18,4 C 23,8 C 25,5 C 25,2 C 0,0 C 50 % 55 % 1017,7 hPa 0,0 l/m 0,2 km/h (0 Bft) W 270 0 min 14,4 C 25,2 C 0,0 km/h (0 Bft)
21.08.2021 18:35 25,6 C 18,4 C 23,8 C 25,5 C 25,2 C 0,0 C 50 % 57 % 1017,5 hPa 0,0 l/m 0,2 km/h (0 Bft) W 270 0 min 14,4 C 25,2 C 0,0 km/h (0 Bft)
21.08.2021 18:40 25,6 C 18,4 C 23,7 C 25,4 C 25,1 C 0,0 C 50 % 56 % 1017,5 hPa 0,0 l/m 0,2 km/h (0 Bft) W 270 0 min 14,4 C 25,1 C 0,0 km/h (0 Bft)
21.08.2021 18:45 25,6 C 18,4 C 23,7 C 25,4 C 25,0 C 0,0 C 50 % 57 % 1017,5 hPa 0,0 l/m 0,0 km/h (0 Bft) W 270 0 min 14,4 C 25,0 C 0,0 km/h (0 Bft)
21.08.2021 18:50 25,5 C 18,4 C 23,5 C 25,3 C 25,0 C 0,0 C 50 % 57 % 1017,5 hPa 0,0 l/m 0,0 km/h (0 Bft) W 270 0 min 14,3 C 25,0 C 0,0 km/h (0 Bft)
21.08.2021 18:55 25,4 C 18,5 C 23,3 C 25,2 C 24,7 C 0,0 C 50 % 57 % 1017,6 hPa 0,0 l/m 0,0 km/h (0 Bft) W 270 0 min 14,2 C 24,7 C 0,0 km/h (0 Bft)
21.08.2021 19:00 25,3 C 18,5 C 23,1 C 25,0 C 24,5 C 0,0 C 50 % 58 % 1017,6 hPa 0,0 l/m 0,0 km/h (0 Bft) W 270 0 min 14,1 C 24,5 C 0,0 km/h (0 Bft)
21.08.2021 19:05 25,2 C 18,6 C 22,9 C 24,9 C 24,3 C 0,0 C 51 % 59 % 1017,6 hPa 0,0 l/m 0,0 km/h (0 Bft) W 270 0 min 14,3 C 24,3 C 0,0 km/h (0 Bft)
21.08.2021 19:10 25,0 C 18,6 C 22,8 C 24,7 C 24,2 C 0,0 C 52 % 59 % 1017,6 hPa 0,0 l/m 0,0 km/h (0 Bft) W 270 0 min 14,4 C 24,2 C 0,0 km/h (0 Bft)
21.08.2021 19:15 24,7 C 18,6 C 22,5 C 24,4 C 23,7 C 0,0 C 53 % 60 % 1017,5 hPa 0,0 l/m 0,0 km/h (0 Bft) W 270 0 min 14,5 C 23,7 C 0,0 km/h (0 Bft)
21.08.2021 19:20 24,5 C 18,6 C 22,3 C 24,2 C 23,5 C 0,0 C 53 % 61 % 1017,5 hPa 0,0 l/m 0,0 km/h (0 Bft) W 270 0 min 14,3 C 23,5 C 0,0 km/h (0 Bft)
21.08.2021 19:25 24,3 C 18,6 C 22,1 C 23,9 C 23,2 C 0,0 C 54 % 62 % 1017,5 hPa 0,0 l/m 0,0 km/h (0 Bft) W 270 0 min 14,4 C 23,2 C 0,0 km/h (0 Bft)
21.08.2021 19:30 24,1 C 18,6 C 21,9 C 23,7 C 23,0 C 0,0 C 55 % 64 % 1017,5 hPa 0,0 l/m 0,0 km/h (0 Bft) W 270 0 min 14,5 C 23,0 C 0,0 km/h (0 Bft)
21.08.2021 19:35 23,9 C 18,6 C 21,7 C 23,5 C 22,6 C 0,0 C 57 % 65 % 1017,8 hPa 0,0 l/m 0,0 km/h (0 Bft) W 270 0 min 14,9 C 22,6 C 0,0 km/h (0 Bft)
21.08.2021 19:40 23,6 C 18,7 C 21,5 C 23,2 C 22,3 C 0,0 C 57 % 66 % 1017,8 hPa 0,0 l/m 0,0 km/h (0 Bft) W 270 0 min 14,6 C 22,3 C 0,0 km/h (0 Bft)
21.08.2021 19:45 23,1 C 18,7 C 21,2 C 22,7 C 22,0 C 0,0 C 60 % 67 % 1017,8 hPa 0,0 l/m 0,0 km/h (0 Bft) W 270 0 min 14,9 C 22,0 C 0,0 km/h (0 Bft)
21.08.2021 19:50 22,8 C 18,7 C 21,0 C 22,4 C 21,7 C 0,0 C 61 % 68 % 1017,8 hPa 0,0 l/m 0,0 km/h (0 Bft) W 270 0 min 14,9 C 21,7 C 0,0 km/h (0 Bft)
21.08.2021 19:55 22,5 C 18,7 C 20,7 C 22,1 C 21,3 C 0,0 C 62 % 68 % 1017,7 hPa 0,0 l/m 0,0 km/h (0 Bft) W 270 0 min 14,8 C 21,3 C 0,0 km/h (0 Bft)
21.08.2021 20:00 22,4 C 18,7 C 20,7 C 22,0 C 21,2 C 0,0 C 62 % 69 % 1017,7 hPa 0,0 l/m 0,0 km/h (0 Bft) W 270 0 min 14,8 C 21,2 C 0,0 km/h (0 Bft)
21.08.2021 20:05 22,3 C 18,7 C 20,6 C 21,8 C 20,8 C 0,0 C 63 % 70 % 1017,7 hPa 0,0 l/m 0,0 km/h (0 Bft) W 270 0 min 14,9 C 20,8 C 0,0 km/h (0 Bft)
21.08.2021 20:10 22,0 C 18,8 C 20,5 C 21,5 C 20,6 C 0,0 C 63 % 70 % 1017,7 hPa 0,0 l/m 0,0 km/h (0 Bft) W 270 0 min 14,6 C 20,6 C 0,0 km/h (0 Bft)
21.08.2021 20:15 21,6 C 18,8 C 20,1 C 21,1 C 20,2 C 0,0 C 64 % 71 % 1017,7 hPa 0,0 l/m 0,0 km/h (0 Bft) W 270 0 min 14,5 C 20,2 C 0,0 km/h (0 Bft)
21.08.2021 20:20 21,5 C 18,8 C 19,9 C 21,0 C 19,9 C 0,0 C 65 % 72 % 1017,7 hPa 0,0 l/m 0,0 km/h (0 Bft) W 270 0 min 14,6 C 19,9 C 0,0 km/h (0 Bft)
21.08.2021 20:25 21,2 C 18,8 C 19,7 C 20,7 C 19,6 C 0,0 C 66 % 73 % 1017,7 hPa 0,0 l/m 0,0 km/h (0 Bft) W 270 0 min 14,6 C 19,6 C 0,0 km/h (0 Bft)
21.08.2021 20:30 21,0 C 18,8 C 19,7 C 20,4 C 19,2 C 0,0 C 67 % 73 % 1017,7 hPa 0,0 l/m 0,0 km/h (0 Bft) W 270 0 min 14,6 C 19,2 C 0,0 km/h (0 Bft)
21.08.2021 20:35 20,9 C 18,8 C 19,5 C 20,3 C 19,0 C 0,0 C 67 % 74 % 1017,7 hPa 0,0 l/m 0,0 km/h (0 Bft) W 270 0 min 14,5 C 19,0 C 0,0 km/h (0 Bft)
21.08.2021 20:40 20,7 C 18,8 C 19,3 C 20,1 C 18,9 C 0,0 C 67 % 75 % 1017,7 hPa 0,0 l/m 0,0 km/h (0 Bft) W 270 0 min 14,3 C 18,9 C 0,0 km/h (0 Bft)
21.08.2021 20:45 20,5 C 18,9 C 19,1 C 20,0 C 18,9 C 0,0 C 69 % 75 % 1017,7 hPa 0,0 l/m 0,0 km/h (0 Bft) W 270 0 min 14,6 C 18,9 C 0,0 km/h (0 Bft)
21.08.2021 20:50 20,3 C 18,9 C 19,0 C 19,8 C 18,7 C 0,0 C 69 % 76 % 1017,7 hPa 0,0 l/m 0,0 km/h (0 Bft) W 270 0 min 14,4 C 18,7 C 0,0 km/h (0 Bft)
21.08.2021 20:55 20,1 C 18,9 C 18,9 C 19,6 C 18,5 C 0,0 C 69 % 77 % 1017,6 hPa 0,0 l/m 0,0 km/h (0 Bft) W 270 0 min 14,2 C 18,5 C 0,0 km/h (0 Bft)
21.08.2021 21:00 20,0 C 18,9 C 18,7 C 19,5 C 18,4 C 0,0 C 70 % 77 % 1017,6 hPa 0,0 l/m 0,0 km/h (0 Bft) W 270 0 min 14,4 C 18,4 C 0,0 km/h (0 Bft)
21.08.2021 21:05 19,9 C 18,9 C 18,7 C 19,3 C 18,1 C 0,0 C 70 % 77 % 1017,6 hPa 0,0 l/m 0,0 km/h (0 Bft) W 270 0 min 14,3 C 18,1 C 0,0 km/h (0 Bft)
21.08.2021 21:10 19,7 C 18,9 C 18,5 C 19,1 C 17,9 C 0,0 C 70 % 78 % 1017,6 hPa 0,0 l/m 0,0 km/h (0 Bft) W 270 0 min 14,1 C 17,9 C 0,0 km/h (0 Bft)
21.08.2021 21:15 19,5 C 18,9 C 18,3 C 18,9 C 17,7 C 0,0 C 71 % 79 % 1017,5 hPa 0,0 l/m 0,0 km/h (0 Bft) W 270 0 min 14,1 C 17,7 C 0,0 km/h (0 Bft)
21.08.2021 21:20 19,3 C 18,9 C 18,2 C 18,7 C 17,5 C 0,0 C 72 % 79 % 1017,5 hPa 0,0 l/m 0,0 km/h (0 Bft) W 270 0 min 14,1 C 17,5 C 0,0 km/h (0 Bft)
21.08.2021 21:25 19,3 C 18,9 C 18,0 C 18,6 C 17,3 C 0,0 C 72 % 79 % 1017,5 hPa 0,0 l/m 0,0 km/h (0 Bft) W 270 0 min 14,1 C 17,3 C 0,0 km/h (0 Bft)
21.08.2021 21:30 19,0 C 18,9 C 17,9 C 18,4 C 17,3 C 0,0 C 73 % 80 % 1017,5 hPa 0,0 l/m 0,0 km/h (0 Bft) W 270 0 min 14,0 C 17,3 C 0,0 km/h (0 Bft)
21.08.2021 21:35 18,9 C 18,9 C 17,9 C 18,4 C 17,3 C 0,0 C 74 % 81 % 1017,4 hPa 0,0 l/m 0,0 km/h (0 Bft) W 270 0 min 14,2 C 17,3 C 0,0 km/h (0 Bft)
21.08.2021 21:40 18,8 C 18,9 C 17,9 C 18,3 C 17,3 C 0,0 C 74 % 81 % 1017,4 hPa 0,0 l/m 0,0 km/h (0 Bft) W 270 0 min 14,1 C 17,3 C 0,0 km/h (0 Bft)
21.08.2021 21:45 18,6 C 18,9 C 17,8 C 18,1 C 17,2 C 0,0 C 75 % 81 % 1017,4 hPa 0,0 l/m 0,0 km/h (0 Bft) W 270 0 min 14,1 C 17,2 C 0,0 km/h (0 Bft)
21.08.2021 21:50 18,5 C 18,9 C 17,7 C 18,0 C 17,0 C 0,0 C 74 % 81 % 1017,4 hPa 0,0 l/m 0,0 km/h (0 Bft) W 270 0 min 13,8 C 17,0 C 0,0 km/h (0 Bft)
21.08.2021 21:55 18,5 C 19,0 C 17,6 C 18,0 C 17,0 C 0,0 C 75 % 82 % 1017,3 hPa 0,0 l/m 0,0 km/h (0 Bft) W 270 0 min 14,0 C 17,0 C 0,0 km/h (0 Bft)
21.08.2021 22:00 18,3 C 19,0 C 17,5 C 17,9 C 17,0 C 0,0 C 76 % 82 % 1017,3 hPa 0,0 l/m 0,0 km/h (0 Bft) W 270 0 min 14,0 C 17,0 C 0,0 km/h (0 Bft)
21.08.2021 22:05 18,2 C 19,0 C 17,5 C 17,8 C 17,0 C 0,0 C 77 % 83 % 1017,3 hPa 0,0 l/m 0,0 km/h (0 Bft) W 270 0 min 14,1 C 17,0 C 0,0 km/h (0 Bft)
21.08.2021 22:10 18,2 C 19,0 C 17,5 C 17,8 C 17,0 C 0,0 C 77 % 83 % 1017,3 hPa 0,0 l/m 0,0 km/h (0 Bft) W 270 0 min 14,1 C 17,0 C 0,0 km/h (0 Bft)
21.08.2021 22:15 18,1 C 19,0 C 17,3 C 17,7 C 16,9 C 0,0 C 78 % 83 % 1017,1 hPa 0,0 l/m 0,0 km/h (0 Bft) W 270 0 min 14,2 C 16,9 C 0,0 km/h (0 Bft)
21.08.2021 22:20 18,0 C 19,0 C 17,3 C 17,6 C 16,7 C 0,0 C 78 % 83 % 1017,1 hPa 0,0 l/m 0,0 km/h (0 Bft) W 270 0 min 14,1 C 16,7 C 0,0 km/h (0 Bft)
21.08.2021 22:25 17,9 C 19,0 C 17,1 C 17,4 C 16,4 C 0,0 C 78 % 83 % 1017,1 hPa 0,0 l/m 0,0 km/h (0 Bft) W 270 0 min 14,0 C 16,4 C 0,0 km/h (0 Bft)
21.08.2021 22:30 17,7 C 18,9 C 17,1 C 17,2 C 16,2 C 0,0 C 78 % 83 % 1017,1 hPa 0,0 l/m 0,0 km/h (0 Bft) W 270 0 min 13,8 C 16,2 C 0,0 km/h (0 Bft)
21.08.2021 22:35 17,6 C 19,1 C 16,9 C 17,1 C 16,0 C 0,0 C 79 % 83 % 1017,2 hPa 0,0 l/m 0,0 km/h (0 Bft) W 270 0 min 13,9 C 16,0 C 0,0 km/h (0 Bft)
21.08.2021 22:40 17,4 C 19,0 C 16,8 C 16,9 C 16,0 C 0,0 C 78 % 83 % 1017,2 hPa 0,0 l/m 0,0 km/h (0 Bft) W 270 0 min 13,5 C 16,0 C 0,0 km/h (0 Bft)
21.08.2021 22:45 17,3 C 19,0 C 16,7 C 16,8 C 15,8 C 0,0 C 79 % 84 % 1017,2 hPa 0,0 l/m 0,0 km/h (0 Bft) W 270 0 min 13,6 C 15,8 C 0,0 km/h (0 Bft)
21.08.2021 22:50 17,2 C 19,1 C 16,6 C 16,7 C 15,7 C 0,0 C 79 % 84 % 1017,2 hPa 0,0 l/m 0,0 km/h (0 Bft) W 270 0 min 13,5 C 15,7 C 0,0 km/h (0 Bft)
21.08.2021 22:55 17,1 C 19,1 C 16,5 C 16,6 C 15,5 C 0,0 C 79 % 84 % 1017,1 hPa 0,0 l/m 0,0 km/h (0 Bft) W 270 0 min 13,4 C 15,5 C 0,0 km/h (0 Bft)
21.08.2021 23:00 17,0 C 19,1 C 16,4 C 16,5 C 15,5 C 0,0 C 80 % 84 % 1017,1 hPa 0,0 l/m 0,0 km/h (0 Bft) W 270 0 min 13,5 C 15,5 C 0,0 km/h (0 Bft)
21.08.2021 23:05 16,8 C 19,1 C 16,3 C 16,4 C 15,5 C 0,0 C 80 % 84 % 1017,1 hPa 0,0 l/m 0,0 km/h (0 Bft) W 270 0 min 13,3 C 15,5 C 0,0 km/h (0 Bft)
21.08.2021 23:10 16,8 C 19,1 C 16,3 C 16,3 C 15,4 C 0,0 C 80 % 85 % 1017,1 hPa 0,0 l/m 0,0 km/h (0 Bft) W 270 0 min 13,3 C 15,4 C 0,0 km/h (0 Bft)
21.08.2021 23:15 16,6 C 19,1 C 16,2 C 16,2 C 15,4 C 0,0 C 80 % 85 % 1017,2 hPa 0,0 l/m 0,0 km/h (0 Bft) W 270 0 min 13,1 C 15,4 C 0,0 km/h (0 Bft)
21.08.2021 23:20 16,7 C 19,1 C 16,1 C 16,2 C 15,3 C 0,0 C 81 % 85 % 1017,2 hPa 0,0 l/m 0,0 km/h (0 Bft) W 270 0 min 13,4 C 15,3 C 0,0 km/h (0 Bft)
21.08.2021 23:25 16,5 C 19,1 C 16,0 C 16,1 C 15,3 C 0,0 C 81 % 85 % 1017,2 hPa 0,0 l/m 0,0 km/h (0 Bft) W 270 0 min 13,2 C 15,3 C 0,0 km/h (0 Bft)
21.08.2021 23:30 16,4 C 19,1 C 16,0 C 16,0 C 15,2 C 0,0 C 82 % 85 % 1017,2 hPa 0,0 l/m 0,0 km/h (0 Bft) W 270 0 min 13,3 C 15,2 C 0,0 km/h (0 Bft)
21.08.2021 23:35 16,4 C 19,1 C 15,9 C 15,9 C 15,0 C 0,0 C 82 % 86 % 1017,0 hPa 0,0 l/m 0,0 km/h (0 Bft) W 270 0 min 13,3 C 15,0 C 0,0 km/h (0 Bft)
21.08.2021 23:40 16,3 C 19,0 C 15,9 C 15,8 C 14,9 C 0,0 C 81 % 86 % 1017,0 hPa 0,0 l/m 0,0 km/h (0 Bft) W 270 0 min 13,0 C 14,9 C 0,0 km/h (0 Bft)
21.08.2021 23:45 16,2 C 19,0 C 15,7 C 15,7 C 14,7 C 0,0 C 81 % 86 % 1017,0 hPa 0,0 l/m 0,0 km/h (0 Bft) W 270 0 min 12,9 C 14,7 C 0,0 km/h (0 Bft)
21.08.2021 23:50 16,1 C 19,0 C 15,7 C 15,6 C 14,6 C 0,0 C 81 % 86 % 1017,0 hPa 0,0 l/m 0,0 km/h (0 Bft) W 270 0 min 12,8 C 14,6 C 0,0 km/h (0 Bft)
21.08.2021 23:55 16,0 C 19,0 C 15,6 C 15,5 C 14,5 C 0,0 C 82 % 86 % 1016,9 hPa 0,0 l/m 0,0 km/h (0 Bft) W 270 0 min 12,9 C 14,5 C 0,0 km/h (0 Bft)
_ Min-Zeit 06:20 10:35 05:55 06:20 05:30 00:00 16:25 15:40 23:55 - 00:00 - - - 06:20 05:30 00:00
Minimum _ 9,4 C 17,0 C 9,9 C 9,2 C 8,8 C 0,0 C 48 % 52 % 1016,9 hPa - 0,0 km/h (0 Bft) - - - 7,5 C 8,8 C 0,0 km/h (0 Bft)
_ Max-Zeit 15:40 22:35 15:40 15:45 15:45 08:45 04:55 03:50 10:15 00:00 11:10 - - 07:10 12:50 15:45 11:20
Maximum _ 26,1 C 19,1 C 24,9 C 33,9 C 33,9 C 11,6 C 88 % 91 % 1019,9 hPa 0,0 l/m 3,1 km/h
O-SO (1 Bft)
- - 5 min 16,2 C 33,9 C 6,6 km/h
S-SO (2 Bft)
Durchschnitt _ 18,1 C 18,1 C 17,4 C 20,0 C 19,6 C 2,1 C 72 % 77 % 1018,5 hPa #0,0 l/m 0,2 km/h (0 Bft) SW - #7:00 h 12,5 C 19,6 C 0,4 km/h (0 Bft)
2021 www.wetterstation-wechselburg.de